Zurück zum Katalog

DELTA 1 DEB

LostSSO
NORAD 40753·DEBRIS·🇺🇸 United States

Gestartet Jul 29, 1976 von Vandenberg Space Force Base

Loading…

Nächste Überflüge (nächste 24 Stunden)

TLE

VeraltetSource: Space-Track

Epoche: Nov 20, 2015, 10:16 UTC

1 40753U 76077FW  15324.42786234 -.00000002  00000-0  34717-3 0  9995
2 40753 101.9439 322.8004 0061250 186.2132 173.8171 12.29964429109156

Verfolge DELTA 1 DEB in Echtzeit mit AllMySat

Download on the App Store